Flag Island, MN

2:31 AM CST on November 23, 2017 (GMT -0600)
Flag Island

Weather History for KFGN - October, 2013

Change the Weather History Date:

Friday, October 25, 2013

  Actual Average Record
Temperature  
Mean Temperature 38 °F -  
Max Temperature 46 °F 40 °F 62 °F (2007)
Min Temperature 30 °F 31 °F 21 °F (1997)
Degree Days  
Heating Degree Days 27    
Moisture  
Dew Point 32 °F    
Average Humidity 77    
Maximum Humidity 93    
Minimum Humidity 65    
Precipitation  
Precipitation 0.00 in - - ()
Sea Level Pressure  
Sea Level Pressure 29.82 in    
Wind  
Wind Speed 14 mph (WSW)    
Max Wind Speed 26 mph    
Max Gust Speed 34 mph    
Visibility 10 miles    
Events Rain    
Averages and records for this station are not official NWS values.
T = Trace of Precipitation, MM = Missing Value Source: NWS Daily Summary

Daily Weather History Graph

Daily Weather History Graph

Search for Another Location

Airport or City:

Trip Planner

Search our weather history database for the weather conditions in past years. The results will help you decide how hot, cold, wet, or windy it might be!

Date:

Astronomy

Oct. 25, 2013 Rise Set
Actual Time 7:56 AM CDT 6:09 PM CDT
Civil Twilight 7:23 AM CDT 6:42 PM CDT
Nautical Twilight 6:46 AM CDT 7:19 PM CDT
Astronomical Twilight 6:09 AM CDT 7:56 PM CDT
Moon 11:22 PM CDT (10/25) 1:46 PM CDT (10/25)
Length of Visible Light 11h 18m
Length of Day
10h 12m
Waning Gibbous, 62% of the Moon is Illuminated
Oct 25
Waning Gibbous
Oct 26
Last Quarter
Nov 3
New
Nov 9
First Quarter
Nov 17
Full

Hourly Weather History & Observations

Time (CDT) Temp. Windchill Dew Point Humidity Pressure Visibility Wind Dir Wind Speed Gust Speed Precip Events Conditions
12:13 AM 33.8 °F 26.4 °F 28.4 °F 81% 30.16 in 10.0 mi WSW 9.2 mph - N/A   Clear
12:33 AM 33.8 °F 26.4 °F 28.4 °F 81% 30.15 in 10.0 mi SW 9.2 mph - N/A   Clear
12:53 AM 32.0 °F 24.2 °F 26.6 °F 80% 30.15 in 10.0 mi WSW 9.2 mph - N/A   Clear
1:13 AM 32.0 °F 24.2 °F 26.6 °F 80% 30.15 in 10.0 mi WSW 9.2 mph - N/A   Clear
1:33 AM 32.0 °F 23.6 °F 26.6 °F 80% 30.14 in 10.0 mi SW 10.4 mph - N/A   Clear
1:53 AM 32.0 °F 24.2 °F 26.6 °F 80% 30.14 in 10.0 mi SW 9.2 mph - N/A   Clear
2:13 AM 30.2 °F 21.3 °F 26.6 °F 86% 30.13 in 10.0 mi SW 10.4 mph - N/A   Clear
2:33 AM 30.2 °F 21.3 °F 26.6 °F 86% 30.12 in 10.0 mi SW 10.4 mph - N/A   Clear
2:53 AM 32.0 °F 24.2 °F 28.4 °F 87% 30.12 in 10.0 mi SW 9.2 mph - N/A   Clear
3:13 AM 32.0 °F 23.6 °F 28.4 °F 87% 30.12 in 10.0 mi SW 10.4 mph - N/A   Clear
3:34 AM 32.0 °F 24.2 °F 28.4 °F 87% 30.11 in 10.0 mi SW 9.2 mph - N/A   Clear
3:53 AM 32.0 °F 24.2 °F 28.4 °F 87% 30.11 in 10.0 mi SW 9.2 mph - N/A   Clear
4:13 AM 32.0 °F 24.2 °F 28.4 °F 87% 30.10 in 10.0 mi SSW 9.2 mph - N/A   Clear
4:34 AM 33.8 °F 25.3 °F 28.4 °F 81% 30.09 in 10.0 mi SW 11.5 mph - N/A   Clear
4:53 AM 33.8 °F 25.3 °F 28.4 °F 81% 30.07 in 10.0 mi SSW 11.5 mph - N/A   Clear
5:13 AM 33.8 °F 25.8 °F 28.4 °F 81% 30.06 in 10.0 mi SSW 10.4 mph - N/A   Clear
5:33 AM 33.8 °F 24.8 °F 28.4 °F 81% 30.04 in 10.0 mi SSW 12.7 mph - N/A   Scattered Clouds
5:53 AM 33.8 °F 24.8 °F 28.4 °F 81% 30.03 in 10.0 mi SSW 12.7 mph - N/A   Mostly Cloudy
6:14 AM 35.6 °F 28.6 °F 30.2 °F 81% 30.02 in 10.0 mi SSW 9.2 mph - N/A   Overcast
6:33 AM 35.6 °F 28.0 °F 28.4 °F 75% 30.01 in 10.0 mi SSW 10.4 mph - N/A   Overcast
6:53 AM 35.6 °F 27.5 °F 28.4 °F 75% 29.98 in 10.0 mi SSW 11.5 mph - N/A   Overcast
7:14 AM 35.6 °F 26.2 °F 30.2 °F 81% 29.96 in 10.0 mi SSW 15.0 mph - N/A   Overcast
7:33 AM 35.6 °F 25.9 °F 30.2 °F 81% 29.94 in 10.0 mi SSW 16.1 mph 19.6 mph N/A   Overcast
7:53 AM 35.6 °F 25.9 °F 28.4 °F 75% 29.92 in 10.0 mi SSW 16.1 mph 25.3 mph N/A   Overcast
8:13 AM 35.6 °F 24.5 °F 28.4 °F 75% 29.90 in 10.0 mi SSW 20.7 mph 25.3 mph N/A   Overcast
8:33 AM 35.6 °F 24.8 °F 28.4 °F 75% 29.88 in 10.0 mi SSW 19.6 mph 29.9 mph N/A   Overcast
8:53 AM 35.6 °F 25.2 °F 28.4 °F 75% 29.86 in 10.0 mi SSW 18.4 mph 29.9 mph N/A   Mostly Cloudy
9:13 AM 35.6 °F 25.5 °F 30.2 °F 81% 29.84 in 10.0 mi SSW 17.3 mph 24.2 mph N/A   Mostly Cloudy
9:33 AM 35.6 °F 23.7 °F 30.2 °F 81% 29.81 in 10.0 mi SSW 24.2 mph 32.2 mph N/A   Overcast
9:53 AM 37.4 °F 26.9 °F 30.2 °F 75% 29.79 in 10.0 mi SSW 20.7 mph 32.2 mph N/A   Overcast
10:13 AM 35.6 °F 24.0 °F 30.2 °F 81% 29.76 in 10.0 mi SSW 23.0 mph 33.4 mph N/A   Overcast
10:33 AM 37.4 °F 26.9 °F 30.2 °F 75% 29.73 in 10.0 mi SSW 20.7 mph 32.2 mph N/A   Overcast
10:53 AM 37.4 °F 27.2 °F 30.2 °F 75% 29.73 in 10.0 mi SSW 19.6 mph 29.9 mph N/A   Overcast
11:13 AM 37.4 °F 26.4 °F 30.2 °F 75% 29.72 in 10.0 mi SSW 23.0 mph 28.8 mph N/A   Overcast
11:33 AM 37.4 °F 25.9 °F 30.2 °F 75% 29.70 in 10.0 mi SSW 25.3 mph 32.2 mph N/A   Overcast
11:53 AM 37.4 °F 26.9 °F 30.2 °F 75% 29.68 in 10.0 mi SSW 20.7 mph 27.6 mph N/A   Overcast
12:13 PM 37.4 °F 27.8 °F 30.2 °F 75% 29.67 in 10.0 mi SW 17.3 mph 20.7 mph N/A   Overcast
12:33 PM 39.2 °F 29.3 °F 30.2 °F 70% 29.64 in 10.0 mi SW 20.7 mph - N/A   Overcast
12:53 PM 41.0 °F 31.9 °F 30.2 °F 65% 29.63 in 10.0 mi WSW 19.6 mph 27.6 mph N/A   Overcast
1:13 PM 42.8 °F 34.3 °F 32.0 °F 66% 29.62 in 10.0 mi WSW 19.6 mph - N/A   Mostly Cloudy
1:33 PM 42.8 °F 34.0 °F 32.0 °F 66% 29.62 in 10.0 mi WSW 20.7 mph 26.5 mph N/A   Mostly Cloudy
1:53 PM 42.8 °F 35.8 °F 32.0 °F 66% 29.60 in 10.0 mi WSW 13.8 mph 21.9 mph N/A   Mostly Cloudy
2:13 PM 42.8 °F 35.1 °F 33.8 °F 70% 29.60 in 10.0 mi WSW 16.1 mph 21.9 mph N/A   Scattered Clouds
2:33 PM 42.8 °F 36.2 °F 33.8 °F 70% 29.59 in 10.0 mi West 12.7 mph 19.6 mph N/A   Clear
2:53 PM 44.6 °F 38.4 °F 33.8 °F 66% 29.59 in 10.0 mi WSW 12.7 mph - N/A   Mostly Cloudy
3:13 PM 44.6 °F 38.8 °F 33.8 °F 66% 29.59 in 10.0 mi WSW 11.5 mph 19.6 mph N/A   Overcast
3:33 PM 44.6 °F 37.8 °F 33.8 °F 66% 29.59 in 10.0 mi West 15.0 mph 21.9 mph N/A   Overcast
3:53 PM 44.6 °F 39.2 °F 33.8 °F 66% 29.59 in 10.0 mi West 10.4 mph - N/A   Overcast
4:13 PM 46.4 °F 42.9 °F 35.6 °F 66% 29.59 in 10.0 mi West 6.9 mph - N/A   Overcast
4:33 PM 46.4 °F 40.4 °F 35.6 °F 66% 29.59 in 10.0 mi West 13.8 mph - N/A   Overcast
4:53 PM 46.4 °F 39.0 °F 35.6 °F 66% 29.60 in 10.0 mi WNW 19.6 mph 24.2 mph N/A   Overcast
5:13 PM 46.4 °F 38.3 °F 35.6 °F 66% 29.61 in 10.0 mi WNW 23.0 mph - N/A   Overcast
5:33 PM 46.4 °F 38.3 °F 35.6 °F 66% 29.62 in 10.0 mi WNW 23.0 mph 33.4 mph N/A   Overcast
5:53 PM 46.4 °F 39.2 °F 35.6 °F 66% 29.62 in 10.0 mi NW 18.4 mph 31.1 mph N/A   Overcast
6:13 PM 44.6 °F 37.4 °F 35.6 °F 71% 29.63 in 10.0 mi NW 16.1 mph 20.7 mph N/A   Scattered Clouds
6:33 PM 44.6 °F 36.4 °F 35.6 °F 71% 29.65 in 10.0 mi NW 20.7 mph - N/A   Mostly Cloudy
6:53 PM 44.6 °F 35.7 °F 35.6 °F 71% 29.66 in 10.0 mi NW 24.2 mph 29.9 mph N/A   Mostly Cloudy
7:13 PM 42.8 °F 32.9 °F 35.6 °F 76% 29.67 in 10.0 mi NNW 26.5 mph - N/A   Mostly Cloudy
7:34 PM 42.8 °F 33.5 °F 35.6 °F 76% 29.68 in 10.0 mi NW 23.0 mph - N/A   Mostly Cloudy
7:53 PM 42.8 °F 33.8 °F 35.6 °F 76% 29.69 in 10.0 mi NW 21.9 mph 29.9 mph N/A   Overcast
8:13 PM 42.8 °F 33.3 °F 35.6 °F 76% 29.70 in 10.0 mi NW 24.2 mph 29.9 mph N/A   Overcast
8:33 PM 41.0 °F 31.1 °F 35.6 °F 81% 29.71 in 10.0 mi NW 23.0 mph 27.6 mph N/A Rain Light Rain
8:53 PM 39.2 °F 29.0 °F 35.6 °F 87% 29.72 in 10.0 mi WNW 21.9 mph 32.2 mph N/A   Overcast
9:14 PM 39.2 °F 28.5 °F 35.6 °F 87% 29.73 in 10.0 mi NW 24.2 mph 28.8 mph N/A Rain Light Rain
9:33 PM 39.2 °F 29.3 °F 35.6 °F 87% 29.73 in 10.0 mi NW 20.7 mph 27.6 mph N/A   Overcast
9:53 PM 39.2 °F 29.0 °F 35.6 °F 87% 29.74 in 10.0 mi NW 21.9 mph 32.2 mph N/A   Overcast
10:14 PM 39.2 °F 28.5 °F 35.6 °F 87% 29.75 in 10.0 mi NW 24.2 mph 32.2 mph N/A   Overcast
10:33 PM 37.4 °F 26.9 °F 35.6 °F 93% 29.76 in 10.0 mi NW 20.7 mph 29.9 mph N/A   Light Drizzle
10:53 PM 37.4 °F 26.1 °F 35.6 °F 93% 29.77 in 10.0 mi NW 24.2 mph 31.1 mph N/A   Overcast
11:14 PM 37.4 °F 26.4 °F 33.8 °F 87% 29.77 in 10.0 mi WNW 23.0 mph 29.9 mph N/A   Overcast
11:33 PM 37.4 °F 26.1 °F 33.8 °F 87% 29.78 in 10.0 mi WNW 24.2 mph 32.2 mph N/A   Overcast
11:54 PM 37.4 °F 26.4 °F 33.8 °F 87% 29.79 in 10.0 mi NW 23.0 mph 34.5 mph N/A   Overcast